Location: Rounton
(54.4000°N, 1.3500°W)
Time: 09:44:04
(UTC+01:00)

OBJECT BA - Visible Passes

Search period start: 26 June 2022 00:00
Search period end: 06 July 2022 00:00
Orbit: 568 x 587 km, 97.6° (Epoch: 25 June)

Date Brightness Start Highest point End Pass type
(mag) Time Alt. Az. Time Alt. Az. Time Alt. Az.
26 Jun ? 23:41:59 10° SW 23:44:38 16° W 23:47:18 10° NW visible
27 Jun ? 23:46:23 10° WSW 23:48:49 15° W 23:51:15 10° NW visible
28 Jun ? 23:50:50 10° WSW 23:53:00 14° W 23:55:11 10° NW visible
29 Jun ? 23:55:19 10° WSW 23:57:12 13° W 23:59:03 10° WNW visible
30 Jun ? 23:59:54 10° WSW 00:01:22 12° W 00:02:51 10° WNW visible
02 Jul ? 00:04:40 10° W 00:05:33 11° W 00:06:27 10° WNW visible
03 Jul ? 22:33:38 10° S 22:37:45 61° WSW 22:41:53 10° NNW visible
04 Jul ? 22:37:47 10° S 22:41:52 56° W 22:45:59 10° NNW visible
05 Jul ? 22:41:56 10° S 22:46:00 51° W 22:50:04 10° NNW visible
